SCP
0 0 0 0 0 0 0 0 0 0 0 0 0 0 0 0 0 0 0 0 0 0 0 0 0 0 0 0 0 0 0 -0
0 0 0 0 0 0 0 0 0 0 0 0 0 0 0 0 0 0 0 0 0 0 0 0 0 0 0 0 0 0 0 0
0 0 0 0 0 0 0 0 0 0 0 0 0 0 0 0 0 0 0 0 0 0 0 0 0 0 0 0 -0 -0 -0 -0
0 0 0 0 0 0 0 0 0 0 0 0 0 0 0 0 0 0 0 0 0 0 0 0 0 0 0 -0 -0 -0 -0 -0
0 0 0 0 0 0 0 0 0 0 0 0 0 0 0 0 0 0 0 0 0 0 0 0 0 0 0 0 0 -0 -0 -0
0 0 0 0 0 0 0 0 0 0 0 0 0 0 0 0 0 0 0 0 0 0 0 0 0 0 0 0 0 0 0 0
0 0 0 0 0 0 0 0 0 0 0 0 0 0 0 0 0 0 0 0 0 0 0 0 0 0 0 0 0 0 0 0
0 0 0 0 0 0 0 0 0 0 0 0 0 0 0 0 0 0 0 0 0 0 0 0 0 0 0 0 0 0 0 0
0 0 0 0 0 0 0 0 0 0 0 0 0 0 0 0 0 0 0 0 0 0 0 0 0 0 0 0 0 0 0 0
0 0 0 0 0 0 0 0 0 0 0 0 0 0 0 0 0 0 0 0 0 0 0 0 0 0 0 0 0 0 0 0
0 0 0 0 0 0 0 0 0 0 0 0 0 0 0 0 0 0 0 0 0 0 0 0 0 0 0 0 0 0 0 0
0 0 0 0 0 0 0 0 0 0 0 0 0 0 0 0 0 0 0 0 0 0 0 0 0 0 0 0 0 0 0 0
0 0 0 0 0 0 0 0 0 0 0 0 0 0 0 0 0 0 0 0 0 0 0 0 0 0 0 0 0 0 0 0
0 0 0 0 0 0 0 0 0 0 0 0 0 0 0 0 0 0 0 0 0 0 0 0 0 0 0 0 0 0 0 0
0 0 0 0 0 0 0 0 0 0 0 0 0 0 0 0 0 0 0 0 0 0 0 0 0 0 0 0 0 0 0 0
0 0 0 0 0 0 0 0 0 0 0 0 0 0 0 0 0 0 0 0 0 0 0 0 0 0 0 0 0 0 0 0
0 0 0 0 0 0 0 0 0 0 0 0 0 0 0 0 0 0 0 0 0 0 0 0 0 0 0 0 0 0 0 0
0 0 0 0 0 0 0 0 0 0 0 0 0 0 0 0 0 0 0 0 0 0 0 0 0 0 0 0 0 0 0 0
0 0 0 0 0 0 0 0 0 0 0 0 0 0 0 0 0 0 0 0 0 0 0 0 0 0 0 0 0 0 0 0
0 0 0 0 0 0 0 0 0 0 0 0 0 0 0 0 0 0 0 0 0 0 0 0 0 0 0 0 0 0 0 0
Wind_Speed_500mb
50 40 32 28 23 19 18 16 16 15 11 7 3 2 5 9 12 16 19 21 23 26 29 32 37 42 47 52 57 62 67 71
54 46 37 34 30 26 24 23 22 19 16 11 7 3 6 12 18 23 27 30 33 35 38 41 45 50 56 61 64 68 71 71
56 51 49 44 40 32 30 31 29 27 22 15 9 7 11 18 24 28 32 36 39 42 45 49 52 57 63 67 71 75 78 75
57 57 55 54 47 39 38 37 37 32 27 21 16 14 16 22 28 33 37 42 46 48 50 53 57 63 67 71 75 78 79 80
59 58 56 57 54 47 43 43 42 38 33 27 24 23 24 26 30 35 39 44 48 49 53 55 59 65 68 71 75 78 79 80
53 50 52 56 57 53 48 48 46 44 41 35 34 33 31 30 33 37 42 48 52 53 56 57 61 65 69 73 76 79 82 84
44 44 47 49 56 57 53 51 51 48 45 46 46 41 38 38 37 42 48 54 57 58 60 60 62 66 68 72 77 80 83 86
37 36 39 43 47 53 49 49 52 52 53 56 54 50 46 43 41 47 54 59 60 60 61 62 62 66 70 73 76 79 81 81
34 41 40 36 37 38 44 49 52 56 62 62 59 55 51 48 47 52 60 61 61 61 61 62 63 68 70 73 77 78 78 75
35 35 30 29 31 36 41 45 53 59 62 61 60 58 54 52 50 56 60 61 61 63 62 64 64 67 70 73 76 76 74 69
35 34 33 30 27 31 39 45 48 49 49 53 57 58 56 53 51 56 60 64 64 64 64 64 66 66 69 70 69 70 69 69
36 37 35 30 28 34 38 43 42 45 51 54 58 59 57 54 53 59 62 65 64 66 64 62 63 64 62 63 57 57 64 68
40 44 41 33 38 39 43 40 41 48 54 57 60 59 58 56 56 59 64 65 65 66 64 61 61 60 57 57 42 46 55 63
50 43 44 44 44 47 49 49 48 51 57 59 58 58 58 58 59 60 64 65 64 64 64 64 61 55 49 47 47 44 51 59
51 54 51 53 54 55 55 56 54 55 58 59 58 57 58 58 59 63 59 58 60 60 61 63 62 55 50 48 54 56 58 69
44 53 60 57 58 55 56 57 55 57 58 57 56 55 55 56 58 57 56 57 59 56 56 58 61 53 43 43 46 50 57 59
44 50 55 53 49 50 52 53 55 58 57 54 55 55 56 59 57 53 55 55 53 49 46 49 51 42 38 40 41 48 54 52
42 48 47 43 45 47 47 50 55 55 53 54 55 56 59 60 56 55 47 50 48 46 49 49 44 36 35 36 38 41 42 46
39 35 33 33 33 38 45 48 48 50 54 57 58 59 60 56 54 54 55 55 41 39 46 49 38 38 30 34 39 37 34 38
31 30 29 29 32 34 38 43 46 51 53 54 56 58 56 55 56 54 53 52 50 39 35 44 40 35 34 34 36 40 39 40
Wind_Direction_500mb
195 195 192 196 199 207 212 205 198 197 189 180 161 100 24 12 358 354 347 340 334 332 334 333 333 332 331 330 330 328 327 324
201 203 209 212 215 218 219 219 214 212 208 210 221 294 351 350 344 339 335 333 330 329 328 328 328 328 328 329 329 328 325 322
207 211 216 222 224 223 224 225 220 219 219 224 243 288 328 332 331 329 328 328 327 325 325 325 326 326 327 327 327 327 325 322
213 218 225 228 229 231 229 226 224 224 225 229 246 274 298 315 324 326 326 326 324 321 320 321 323 324 325 326 326 325 323 319
216 222 230 234 237 237 233 228 226 228 232 240 253 268 287 303 316 321 320 319 316 317 319 320 321 322 323 323 323 322 320 317
223 227 237 240 239 238 235 230 230 234 239 248 256 265 275 289 300 310 317 319 316 316 317 318 320 322 322 322 321 320 318 316
227 244 243 246 246 241 237 233 233 238 247 250 255 261 268 277 289 302 310 315 314 314 315 316 319 321 321 322 320 318 317 316
235 238 244 249 250 241 238 235 238 243 247 251 255 259 263 271 284 297 305 309 309 310 311 313 318 320 322 321 318 317 317 316
241 242 242 240 236 232 234 236 242 249 252 253 255 258 262 272 282 297 303 305 305 308 310 313 319 321 321 319 318 318 316 315
238 233 226 225 225 228 234 243 251 257 259 259 258 258 264 271 283 294 299 302 303 307 310 313 317 319 319 320 318 316 315 319
227 224 220 214 220 252 258 257 262 269 270 261 259 260 263 270 281 292 301 301 302 306 309 311 314 318 319 319 316 317 320 324
229 230 219 228 269 274 258 261 272 270 265 262 261 261 263 271 282 294 298 299 300 303 305 308 312 315 317 317 319 322 322 315
234 236 232 257 274 266 259 267 273 270 263 261 260 261 266 274 283 292 296 297 297 300 302 306 310 313 319 319 319 313 309 314
234 244 242 265 268 266 265 264 271 269 260 258 260 263 269 275 284 292 293 293 294 298 301 304 306 313 317 321 327 320 316 313
240 242 255 265 270 268 266 261 264 265 260 258 260 266 272 278 286 291 290 288 291 295 299 301 306 318 324 325 331 328 322 310
252 259 261 270 269 265 266 262 266 264 262 261 264 269 274 280 287 288 286 288 290 292 295 303 310 315 317 315 317 319 307 311
257 267 268 264 260 261 262 263 266 265 264 266 269 272 278 284 284 282 284 285 288 292 291 291 291 301 306 309 310 303 306 320
268 270 263 257 259 260 262 266 266 266 266 268 272 277 280 281 281 282 275 280 285 288 288 286 292 295 301 304 305 304 317 320
270 264 260 263 260 261 266 264 266 269 272 275 277 277 278 278 278 279 282 285 280 281 284 286 286 292 299 297 304 310 309 318
261 258 252 255 264 268 269 269 270 270 273 275 276 277 277 276 276 277 278 281 288 287 278 280 286 289 293 295 302 309 316 322
Wind_Speed_850mb
50 40 32 28 23 19 18 16 16 15 11 7 3 2 5 9 12 16 19 21 23 26 29 32 37 42 47 52 57 62 67 71
54 46 37 34 30 26 24 23 22 19 16 11 7 3 6 12 18 23 27 30 33 35 38 41 45 50 56 61 64 68 71 71
56 51 49 44 40 32 30 31 29 27 22 15 9 7 11 18 24 28 32 36 39 42 45 49 52 57 63 67 71 75 78 75
57 57 55 54 47 39 38 37 37 32 27 21 16 14 16 22 28 33 37 42 46 48 50 53 57 63 67 71 75 78 79 80
59 58 56 57 54 47 43 43 42 38 33 27 24 23 24 26 30 35 39 44 48 49 53 55 59 65 68 71 75 78 79 80
53 50 52 56 57 53 48 48 46 44 41 35 34 33 31 30 33 37 42 48 52 53 56 57 61 65 69 73 76 79 82 84
44 44 47 49 56 57 53 51 51 48 45 46 46 41 38 38 37 42 48 54 57 58 60 60 62 66 68 72 77 80 83 86
37 36 39 43 47 53 49 49 52 52 53 56 54 50 46 43 41 47 54 59 60 60 61 62 62 66 70 73 76 79 81 81
34 41 40 36 37 38 44 49 52 56 62 62 59 55 51 48 47 52 60 61 61 61 61 62 63 68 70 73 77 78 78 75
35 35 30 29 31 36 41 45 53 59 62 61 60 58 54 52 50 56 60 61 61 63 62 64 64 67 70 73 76 76 74 69
35 34 33 30 27 31 39 45 48 49 49 53 57 58 56 53 51 56 60 64 64 64 64 64 66 66 69 70 69 70 69 69
36 37 35 30 28 34 38 43 42 45 51 54 58 59 57 54 53 59 62 65 64 66 64 62 63 64 62 63 57 57 64 68
40 44 41 33 38 39 43 40 41 48 54 57 60 59 58 56 56 59 64 65 65 66 64 61 61 60 57 57 42 46 55 63
50 43 44 44 44 47 49 49 48 51 57 59 58 58 58 58 59 60 64 65 64 64 64 64 61 55 49 47 47 44 51 59
51 54 51 53 54 55 55 56 54 55 58 59 58 57 58 58 59 63 59 58 60 60 61 63 62 55 50 48 54 56 58 69
44 53 60 57 58 55 56 57 55 57 58 57 56 55 55 56 58 57 56 57 59 56 56 58 61 53 43 43 46 50 57 59
44 50 55 53 49 50 52 53 55 58 57 54 55 55 56 59 57 53 55 55 53 49 46 49 51 42 38 40 41 48 54 52
42 48 47 43 45 47 47 50 55 55 53 54 55 56 59 60 56 55 47 50 48 46 49 49 44 36 35 36 38 41 42 46
39 35 33 33 33 38 45 48 48 50 54 57 58 59 60 56 54 54 55 55 41 39 46 49 38 38 30 34 39 37 34 38
31 30 29 29 32 34 38 43 46 51 53 54 56 58 56 55 56 54 53 52 50 39 35 44 40 35 34 34 36 40 39 40
Wind_Direction_850mb
195 195 192 196 199 207 212 205 198 197 189 180 161 100 24 12 358 354 347 340 334 332 334 333 333 332 331 330 330 328 327 324
201 203 209 212 215 218 219 219 214 212 208 210 221 294 351 350 344 339 335 333 330 329 328 328 328 328 328 329 329 328 325 322
207 211 216 222 224 223 224 225 220 219 219 224 243 288 328 332 331 329 328 328 327 325 325 325 326 326 327 327 327 327 325 322
213 218 225 228 229 231 229 226 224 224 225 229 246 274 298 315 324 326 326 326 324 321 320 321 323 324 325 326 326 325 323 319
216 222 230 234 237 237 233 228 226 228 232 240 253 268 287 303 316 321 320 319 316 317 319 320 321 322 323 323 323 322 320 317
223 227 237 240 239 238 235 230 230 234 239 248 256 265 275 289 300 310 317 319 316 316 317 318 320 322 322 322 321 320 318 316
227 244 243 246 246 241 237 233 233 238 247 250 255 261 268 277 289 302 310 315 314 314 315 316 319 321 321 322 320 318 317 316
235 238 244 249 250 241 238 235 238 243 247 251 255 259 263 271 284 297 305 309 309 310 311 313 318 320 322 321 318 317 317 316
241 242 242 240 236 232 234 236 242 249 252 253 255 258 262 272 282 297 303 305 305 308 310 313 319 321 321 319 318 318 316 315
238 233 226 225 225 228 234 243 251 257 259 259 258 258 264 271 283 294 299 302 303 307 310 313 317 319 319 320 318 316 315 319
227 224 220 214 220 252 258 257 262 269 270 261 259 260 263 270 281 292 301 301 302 306 309 311 314 318 319 319 316 317 320 324
229 230 219 228 269 274 258 261 272 270 265 262 261 261 263 271 282 294 298 299 300 303 305 308 312 315 317 317 319 322 322 315
234 236 232 257 274 266 259 267 273 270 263 261 260 261 266 274 283 292 296 297 297 300 302 306 310 313 319 319 319 313 309 314
234 244 242 265 268 266 265 264 271 269 260 258 260 263 269 275 284 292 293 293 294 298 301 304 306 313 317 321 327 320 316 313
240 242 255 265 270 268 266 261 264 265 260 258 260 266 272 278 286 291 290 288 291 295 299 301 306 318 324 325 331 328 322 310
252 259 261 270 269 265 266 262 266 264 262 261 264 269 274 280 287 288 286 288 290 292 295 303 310 315 317 315 317 319 307 311
257 267 268 264 260 261 262 263 266 265 264 266 269 272 278 284 284 282 284 285 288 292 291 291 291 301 306 309 310 303 306 320
268 270 263 257 259 260 262 266 266 266 266 268 272 277 280 281 281 282 275 280 285 288 288 286 292 295 301 304 305 304 317 320
270 264 260 263 260 261 266 264 266 269 272 275 277 277 278 278 278 279 282 285 280 281 284 286 286 292 299 297 304 310 309 318
261 258 252 255 264 268 269 269 270 270 273 275 276 277 277 276 276 277 278 281 288 287 278 280 286 289 293 295 302 309 316 322